Regional Weather Roundup
Issued by NWS Midland/Odessa, TX

Skip options and go directly to product.
Home | Oldest Version | Previous Version | Current Version | All | Text Only | Save Text | Print | Product List | Glossary Off

Skip product version selection by date and time.   

669
ASUS44 KMAF 291610
RWRMAF
MIDLAND AREA WEATHER ROUNDUP
NATIONAL WEATHER SERVICE MIDLAND TX
1100 AM CDT WED JUL 29 2015

...IN SOUTHWEST TEXAS AND SOUTHEAST NEW MEXICO...

CITY           SKY/WX    TMP DP  RH WIND       PRES   REMARKS
ALPINE         MOSUNNY   75  64  67 E3        30.28R
ANDREWS        FAIR      84  62  47 CALM      30.16R
ARTESIA        MOSUNNY   82  63  51 N10       30.21R
BIG SPRING     SUNNY     82  63  52 S5        30.15S
CARLSBAD       SUNNY     85  63  47 N9        30.17R
DRYDEN           N/A     85  70  60 VRB3      30.07S
FORT STOCKTON  SUNNY     84  65  52 W9        30.12S
GUAD PASS      MOSUNNY   76  60  57 NE15      30.30R
HOBBS          SUNNY     82  61  47 NE9       30.20S
MARFA          PTSUNNY   75  63  64 NE10      30.25S
MIDLAND AIRPK  SUNNY     87  62  42 S5        30.14R
MIDLAND INTL   SUNNY     86  64  47 CALM      30.13S
ODESSA         SUNNY     85  61  44 VRB3      30.14S
PECOS          SUNNY     86  60  40 N6        30.11S
PRESIDIO       FAIR      89  60  36 CALM      30.08S
SEMINOLE       SUNNY     83  61  47 N7        30.19S
SNYDER         SUNNY     85  66  53 SW7       30.13R
WINK           SUNNY     89  62  40 NE6       30.11R
$$
...OTHER STATIONS IN TEXAS...

CITY           SKY/WX    TMP DP  RH WIND       PRES   REMARKS
ABILENE        SUNNY     88  70  55 SW6       30.10R
AMARILLO       SUNNY     75  63  66 N13       30.25R
AUSTIN         MOSUNNY   87  73  62 S12       30.06F
BROWNSVILLE    MOSUNNY   91  74  57 SE16      30.01R HX 100
CORPUS CHRISTI MOSUNNY   90  76  63 S10       30.02S HX 101
DALLAS FTW     MOSUNNY   89  69  51 SW6       30.05S
DEL RIO        SUNNY     86  72  62 SE12      30.03R
EL PASO        PTSUNNY   78  64  61 NW6       30.17S
HOUSTON INT    MOSUNNY   89  73  59 CALM      30.06S
LUBBOCK        MOSUNNY   82  66  58 NE10      30.19S
SAN ANGELO     SUNNY     88  69  53 MISG      30.09R
SAN ANTONIO    MOSUNNY   86  73  65 VRB5      30.08R
WACO           SUNNY     89  71  55 S8        30.06F
WICHITA FALLS  NOT AVBL
$$
...OTHER LOCATIONS IN NEW MEXICO...

CITY           SKY/WX    TMP DP  RH WIND       PRES   REMARKS
ALAMAGORDO     MOSUNNY   77  63  61 N7        30.22F
ALBUQUERQUE    CLOUDY    74  57  55 N5        30.32R
CANNON AFB     SUNNY     77  66  68 E10       30.26R
CLOVIS         MOSUNNY   75  64  69 E13       30.28R
HOLLOMAN AFB   NOT AVBL
ROSWELL        MOSUNNY   81  62  52 VRB3      30.21S
RUIDOSO          N/A    N/A N/A N/A MISG        N/A
SANTA FE       CLOUDY    70  51  51 CALM      30.37R
TRUTH OR CONSE CLOUDY    72  63  73 SW3       30.25S
TUCUMCARI      PTSUNNY   74  64  71 E12       30.27R
$$

USA.gov is the U.S. government's official web portal to all federal, state and local government web resources and services.